TimeEDT,TemperatureF,Dew PointF,Humidity,Sea Level PressureIn,VisibilityMPH,Wind Direction,Wind SpeedMPH,Gust SpeedMPH,PrecipitationIn,Events,Conditions,WindDirDegrees,DateUTC
12:52 AM,43.0,36.0,76,30.23,10.0,NE,13.8,27.6,N/A,,Overcast,50,2014-04-29 04:52:00
1:52 AM,43.0,36.0,76,30.23,10.0,NE,15.0,24.2,N/A,,Overcast,50,2014-04-29 05:52:00
2:41 AM,43.0,36.0,76,30.23,10.0,NE,15.0,23.0,N/A,,Overcast,40,2014-04-29 06:41:00
2:52 AM,43.0,36.0,76,30.24,10.0,NE,15.0,25.3,N/A,,Overcast,40,2014-04-29 06:52:00
3:52 AM,42.1,36.0,79,30.28,10.0,NE,12.7,21.9,N/A,,Overcast,50,2014-04-29 07:52:00
4:52 AM,42.1,35.1,76,30.30,10.0,NE,13.8,24.2,N/A,,Overcast,50,2014-04-29 08:52:00
5:21 AM,42.1,35.1,76,30.30,10.0,NE,15.0,25.3,N/A,,Overcast,50,2014-04-29 09:21:00
5:52 AM,42.1,34.0,73,30.34,10.0,NE,16.1,23.0,N/A,,Overcast,50,2014-04-29 09:52:00
7:52 AM,42.1,35.1,76,30.38,10.0,NE,13.8,24.2,N/A,,Overcast,50,2014-04-29 11:52:00
9:52 AM,43.0,34.0,71,30.43,10.0,ENE,10.4,24.2,N/A,,Overcast,60,2014-04-29 13:52:00
11:52 AM,44.1,33.1,65,30.44,10.0,ENE,16.1,27.6,N/A,,Overcast,60,2014-04-29 15:52:00
12:52 PM,43.0,33.1,68,30.45,10.0,NE,17.3,27.6,N/A,,Overcast,50,2014-04-29 16:52:00
1:52 PM,43.0,33.1,68,30.48,10.0,NE,12.7,24.2,N/A,,Overcast,40,2014-04-29 17:52:00
2:52 PM,43.0,33.1,68,30.48,10.0,ENE,13.8,21.9,N/A,,Overcast,60,2014-04-29 18:52:00
3:52 PM,43.0,34.0,71,30.47,10.0,ENE,11.5,23.0,N/A,,Overcast,60,2014-04-29 19:52:00
6:52 PM,42.1,32.0,67,30.50,10.0,ENE,15.0,-,N/A,,Overcast,70,2014-04-29 22:52:00
7:52 PM,42.1,33.1,70,30.51,10.0,East,12.7,-,N/A,,Overcast,80,2014-04-29 23:52:00
8:52 PM,42.1,32.0,67,30.52,10.0,East,8.1,-,N/A,,Overcast,90,2014-04-30 00:52:00
9:52 PM,41.0,30.9,67,30.52,10.0,East,9.2,-,N/A,,Overcast,80,2014-04-30 01:52:00
11:52 PM,41.0,30.9,67,30.52,10.0,East,10.4,-,N/A,,Overcast,100,2014-04-30 03:52:00